SCP
0 0 0 0 0 0 0 0 0 0 0 0 0 0 0 0 0 0 0 0 0 0 0 0 0 0 0 0 0 0 0 0 0 0 0 0 0 0 0 0 0 0 0
0 0 0 0 0 0 0 0 0 0 0 0 0 0 0 0 0 0 0 0 0 0 0 0 0 0 0 0 0 0 0 0 0 0 0 0 0 0 0 0 0 0 0
0 0 0 0 0 0 0 0 0 0 0 0 0 0 0 0 0 0 0 0 0 0 0 0 0 0 0 0 0 0 0 0 0 0 0 0 0 0 0 0 0 0 0
0 0 0 0 0 0 0 0 0 0 0 0 0 0 0 0 0 0 0 0 0 0 0 0 0 0 0 0 0 0 0 0 0 0 0 0 0 0 0 0 0 0 0
0 0 0 0 0 0 0 0 0 0 0 0 0 0 0 0 0 0 0 0 0 0 0 0 0 0 0 0 0 0 0 0 0 0 0 0 0 0 0 0 0 0 0
0 0 0 0 0 0 0 0 0 0 0 0 0 0 0 0 0 0 0 0 0 0 0 0 0 0 0 0 0 0 0 0 0 0 0 0 0 0 0 0 0 0 0
0 0 0 0 0 0 0 0 0 0 0 0 0 0 0 0 0 0 0 0 0 0 0 0 0 0 0 0 0 0 0 0 0 0 0 0 0 0 0 0 0 0 0
0 0 0 0 0 0 0 0 0 0 0 0 0 0 0 0 0 0 0 0 0 0 0 0 0 0 0 0 0 0 0 0 0 0 0 0 0 0 0 0 0 0 0
0 0 0 0 0 0 0 0 0 0 0 0 0 0 0 0 0 0 0 0 0 0 0 0 0 0 0 0 0 0 0 0 0 0 0 0 0 0 0 0 0 0 0
0 0 0 0 0 0 0 0 0 0 0 0 0 0 0 0 0 0 0 0 0 0 0 0 0 0 0 0 0 0 0 0 0 0 0 0 0 0 0 0 0 0 0
0 0 0 0 0 0 0 0 0 0 0 0 0 0 0 0 0 0 0 0 0 0 0 0 0 0 0 0 0 0 0 0 0 0 0 0 0 0 0 0 0 0 0
0 0 0 0 0 0 0 0 0 0 0 0 0 0 0 0 0 0 0 0 0 0 0 0 0 0 0 0 0 0 0 0 0 0 0 0 0 0 0 0 0 0 0
0 0 0 0 0 0 0 0 0 0 0 0 0 0 0 0 0 0 0 0 0 0 0 0 0 0 0 0 0 0 0 0 0 0 0 0 0 0 0 0 0 0 0
0 0 0 0 0 0 0 0 0 0 0 0 0 0 0 0 0 0 0 0 0 0 0 0 0 0 0 0 0 0 0 0 0 0 0 0 0 0 0 0 0 0 0
-0 0 0 0 0 0 0 0 0 0 0 0 0 0 0 0 0 0 0 0 0 0 0 0 0 0 0 0 0 0 0 0 0 0 0 0 0 0 0 0 0 0 0
-0 0 0 0 0 0 0 0 0 0 0 0 0 0 0 0 0 0 0 0 0 0 0 0 0 0 0 0 0 0 0 0 0 0 0 0 0 0 0 0 0 0 0
0 0 0 0 0 0 0 0 0 0 0 0 0 0 0 0 0 0 0 0 0 0 0 0 0 0 0 0 0 0 0 0 0 0 0 0 0 0 0 0 0 0 0
0 0 0 0 0 0 0 0 0 0 0 0 0 0 0 0 0 0 0 0 0 0 0 0 0 0 0 0 0 0 0 0 0 0 0 0 0 0 0 0 0 0 0
0 0 0 0 0 0 0 0 0 0 0 0 0 0 0 0 0 0 0 0 0 0 0 0 0 0 0 0 0 0 0 0 0 0 0 0 0 0 0 0 0 0 0
0 0 0 0 0 0 0 0 0 0 0 0 0 0 0 0 0 0 0 0 0 0 0 0 0 0 0 0 0 0 0 0 0 0 0 0 0 0 0 0 0 0 0
0 0 0 0 0 0 0 0 0 0 0 0 0 0 0 0 0 0 0 0 0 0 0 0 0 0 0 0 0 0 0 0 0 0 0 0 0 0 0 0 0 0 0
0 0 0 0 0 0 0 0 0 0 0 0 0 0 0 0 0 0 0 0 0 0 0 0 0 0 0 0 0 0 0 0 0 0 0 0 0 0 0 0 0 0 0
0 0 0 0 0 0 0 0 0 0 0 0 0 0 0 0 0 0 0 0 0 0 0 0 0 0 0 0 0 0 0 0 0 0 0 0 0 0 0 0 0 0 0
0 0 0 0 0 0 0 0 0 0 0 0 0 0 0 0 0 0 0 0 0 0 0 0 0 0 0 0 0 0 0 0 0 0 0 0 0 0 0 0 0 0 0
0 0 0 0 0 0 0 0 0 0 0 0 0 0 0 0 0 0 0 0 0 0 0 0 0 0 0 0 0 0 0 0 0 0 0 0 0 0 0 0 0 0 0
0 0 0 0 0 0 0 0 0 0 0 0 0 0 0 0 0 0 0 0 0 0 0 0 0 0 0 0 0 0 0 0 0 0 0 0 0 0 0 0 0 0 0
Wind_Speed_500mb
31 29 24 22 19 18 18 22 25 25 32 39 48 55 73 89 78 71 78 83 84 79 77 70 69 61 56 54 49 39 33 34 35 29 23 21 16 17 11 16 26 24 21
33 31 28 22 17 13 9 5 4 2 2 8 17 24 25 20 37 54 51 45 40 47 42 39 32 21 19 23 28 31 23 20 16 19 17 5 7 15 24 22 19 19 18
46 44 43 40 34 30 27 23 19 19 18 15 10 7 5 10 13 12 12 8 11 21 28 33 40 36 27 20 12 7 8 12 10 3 10 18 24 24 20 17 15 15 17
59 60 60 56 53 50 47 45 42 42 41 40 40 44 43 42 36 39 39 40 42 42 37 34 31 18 15 12 12 9 7 5 7 13 20 23 21 17 13 11 13 15 19
60 59 59 52 48 43 41 39 36 36 40 40 42 41 41 42 44 37 33 28 22 16 19 20 12 11 12 11 11 12 13 12 13 14 15 15 13 12 11 10 13 17 22
55 56 52 48 45 44 44 43 40 41 40 34 33 30 27 22 17 14 15 18 23 20 16 19 20 17 16 16 15 14 12 11 9 9 10 8 5 4 8 13 17 22 25
57 52 51 44 41 39 35 30 31 31 29 29 27 26 28 29 27 27 25 24 24 24 21 18 16 16 14 14 12 10 9 8 7 6 3 2 1 7 11 17 22 27 31
56 55 52 48 46 42 40 37 38 36 36 35 34 31 30 36 31 29 25 22 21 21 20 19 17 16 14 12 12 10 8 8 6 4 3 6 7 11 15 20 25 30 32
56 55 49 43 43 42 40 37 35 31 31 30 29 28 27 31 28 24 21 20 18 16 15 15 14 11 10 9 9 6 5 4 4 6 9 12 15 19 22 25 27 33 40
54 51 46 41 41 40 38 37 35 32 32 29 26 27 27 25 23 20 18 16 13 13 12 10 9 8 6 5 6 6 7 9 11 13 16 19 22 24 26 28 31 33 36
48 45 42 41 40 40 36 34 32 29 27 24 23 22 19 18 15 13 11 9 9 8 7 7 5 5 6 8 11 14 15 18 20 22 23 25 25 26 26 28 32 36 39
38 37 37 36 34 33 31 28 26 24 22 20 19 16 15 13 11 10 10 9 10 10 10 10 10 11 14 17 19 21 22 26 28 28 28 29 29 30 33 34 35 38 42
29 29 28 28 27 26 24 23 21 19 18 17 15 13 13 13 13 12 12 13 14 15 16 18 20 21 22 24 27 30 31 32 32 33 33 33 36 37 36 40 42 45 46
22 21 19 17 16 15 15 15 15 15 15 15 13 12 12 14 15 14 14 14 15 16 19 22 26 28 30 31 31 32 34 34 33 34 36 38 39 40 43 45 49 50 55
21 19 19 19 18 17 15 14 12 12 13 15 16 17 18 17 18 18 21 21 21 21 21 26 32 31 29 29 28 29 31 32 33 35 38 39 40 43 47 48 50 54 56
26 25 22 20 19 19 18 19 20 19 19 18 19 20 20 20 21 26 27 29 26 28 30 34 34 34 35 35 33 33 33 35 37 39 40 43 46 47 50 48 48 48 51
29 29 29 28 27 25 24 23 22 21 22 23 24 25 26 28 25 28 28 28 28 29 30 30 34 40 45 45 40 40 41 40 42 44 47 47 47 48 50 48 47 47 46
36 33 30 27 26 26 27 26 25 24 23 25 25 27 30 27 29 32 30 31 31 28 30 33 39 43 46 47 46 46 45 45 44 44 44 44 44 44 44 43 41 42 43
36 33 28 25 23 21 21 21 21 20 19 19 20 25 25 24 29 36 31 31 30 32 35 40 44 43 42 42 42 42 41 41 40 40 39 38 37 39 38 39 40 39 41
32 28 25 23 20 19 18 18 17 17 16 18 22 27 27 27 26 28 30 29 28 29 29 33 35 37 39 40 40 39 38 36 35 35 34 34 33 34 35 36 36 39 39
23 22 19 18 17 17 17 18 18 19 20 21 22 26 28 26 24 24 25 25 26 28 29 30 31 32 33 34 34 35 34 33 32 31 30 30 30 31 31 31 32 33 36
20 17 15 14 14 14 13 12 12 12 12 14 15 17 20 21 21 21 23 24 25 26 26 26 26 26 26 27 27 28 28 28 27 27 27 27 27 27 27 27 28 29 30
18 15 14 14 14 14 14 14 14 15 15 16 17 18 18 18 18 18 19 19 20 21 22 22 22 23 25 26 27 29 29 28 27 27 26 27 27 29 30 29 29 29 31
14 12 12 12 12 12 13 14 14 15 15 16 17 18 18 19 19 20 20 21 21 23 25 27 28 30 30 30 30 30 29 26 24 25 28 29 31 32 32 33 34 33 34
12 12 11 10 10 10 12 14 16 18 19 19 20 20 21 22 22 23 24 25 27 28 29 31 32 33 32 32 32 31 29 26 25 30 32 34 37 39 41 39 36 35 36
7 7 9 12 14 16 16 17 17 18 18 19 20 21 21 22 23 23 25 26 27 28 30 31 32 32 34 34 34 35 33 28 23 37 39 41 45 46 40 36 38 40 41
Wind_Direction_500mb
164 172 173 187 194 211 225 238 244 252 255 254 250 251 245 238 231 237 231 233 233 244 238 245 248 250 252 256 241 240 228 219 213 182 190 195 207 221 221 269 265 257 260
135 140 137 139 139 144 150 159 107 75 335 277 243 236 236 244 244 233 240 233 228 217 231 244 226 195 186 144 127 116 102 87 93 106 104 110 232 258 262 256 251 253 267
119 116 111 107 107 103 99 96 102 100 97 98 94 107 123 166 158 159 162 170 180 162 139 130 116 115 111 101 89 61 32 16 355 277 203 231 245 247 238 234 244 265 281
107 107 103 99 95 92 89 88 85 87 88 92 92 91 92 96 88 90 94 108 107 105 107 109 114 99 80 65 57 63 89 140 213 216 218 216 209 210 218 240 265 286 294
99 97 93 92 92 90 88 86 83 84 84 86 89 91 91 94 89 88 88 87 85 85 100 100 96 97 105 109 119 144 160 161 157 165 170 168 175 197 227 261 284 299 303
88 87 90 93 92 90 89 90 90 89 88 85 84 84 85 83 92 105 118 124 127 120 128 135 132 132 133 124 117 114 118 123 137 148 155 164 186 251 285 297 304 309 320
90 90 91 90 91 91 90 93 97 97 97 97 101 106 107 102 99 96 90 94 99 106 111 108 111 113 114 116 113 114 118 118 115 113 104 135 291 305 308 312 318 321 324
83 82 82 84 87 88 89 85 84 85 86 87 86 86 93 93 88 85 86 91 96 101 105 106 106 104 99 92 90 87 87 83 68 52 19 332 323 313 312 316 320 324 325
77 79 79 79 82 84 86 87 83 85 87 88 87 85 81 83 79 77 72 73 79 85 87 86 86 82 76 72 65 53 46 35 32 349 335 327 321 316 315 315 321 326 328
68 68 71 73 78 78 78 79 78 77 77 79 81 79 78 79 77 74 73 70 64 68 70 74 75 71 59 34 18 4 348 345 342 331 325 322 318 317 318 321 322 324 325
64 64 63 60 59 61 61 62 64 66 68 72 75 78 80 78 80 74 69 63 57 44 36 30 22 358 330 323 324 324 326 328 323 319 316 316 313 313 313 313 315 319 320
64 64 65 64 62 61 58 59 59 59 59 59 60 61 60 60 54 42 29 17 14 2 356 347 338 326 317 315 313 311 311 311 311 309 308 308 308 310 308 305 310 314 314
50 49 50 50 50 50 49 49 49 47 42 37 34 25 24 20 17 7 357 350 346 342 336 331 325 321 315 310 306 303 302 301 301 302 303 301 304 307 306 307 312 313 308
38 37 37 36 33 30 27 22 17 15 12 11 5 357 357 359 351 346 344 341 336 329 322 320 318 312 305 299 293 295 298 300 303 303 300 303 306 306 306 305 307 308 305
10 0 354 351 351 353 351 349 347 341 331 326 323 320 317 316 320 319 307 300 304 305 308 318 316 307 304 301 299 299 298 298 299 299 300 301 302 303 304 307 312 313 311
8 359 345 325 314 310 309 309 311 311 309 307 301 296 295 298 306 307 313 307 307 304 305 320 323 325 326 319 311 307 304 303 303 305 304 304 305 305 306 309 310 308 308
346 342 338 332 328 316 304 300 299 299 299 296 296 295 296 296 297 302 307 310 314 306 306 312 313 309 311 309 305 306 308 307 305 306 305 306 307 308 308 309 309 311 312
330 327 322 320 321 322 321 314 305 299 297 297 297 295 295 296 293 293 298 304 302 296 292 293 297 300 302 301 303 303 303 303 303 302 303 305 308 307 308 310 313 315 314
320 315 312 311 309 310 314 316 315 312 307 304 301 294 300 299 295 300 307 304 299 297 295 294 296 300 301 301 302 303 304 305 307 308 309 310 310 310 310 311 314 316 316
326 318 314 313 315 317 318 319 319 319 321 316 315 317 323 321 313 311 312 310 307 306 308 309 308 306 307 308 309 310 311 311 310 309 308 308 308 309 311 313 314 314 316
334 331 328 327 326 326 331 332 331 332 330 334 334 328 331 331 330 330 329 328 326 322 319 317 315 314 313 313 313 315 317 317 317 317 317 318 320 320 321 322 322 323 323
350 352 348 345 347 350 349 349 348 342 338 336 334 332 337 338 338 336 334 332 330 329 328 328 328 328 327 327 328 329 331 332 333 336 338 339 339 340 340 337 336 337 339
347 352 354 356 357 0 1 2 3 2 360 357 354 352 351 351 352 353 353 352 349 347 345 344 343 341 338 336 335 335 335 336 337 339 340 342 344 345 344 340 336 334 333
359 2 4 6 9 14 15 16 15 14 12 10 10 11 14 15 13 8 5 1 356 350 344 340 335 332 328 325 323 322 325 329 332 333 330 334 335 335 336 336 334 331 331
4 11 19 25 31 32 34 34 34 33 30 26 23 18 13 8 2 356 351 345 340 335 332 331 331 330 329 327 326 322 317 313 313 319 319 315 321 324 324 322 319 318 318
23 32 38 41 40 41 38 36 33 27 21 15 10 4 359 354 350 345 340 336 333 331 330 329 328 329 327 325 322 320 318 314 309 312 310 311 317 322 322 318 318 318 319
Wind_Speed_850mb
31 29 24 22 19 18 18 22 25 25 32 39 48 55 73 89 78 71 78 83 84 79 77 70 69 61 56 54 49 39 33 34 35 29 23 21 16 17 11 16 26 24 21
33 31 28 22 17 13 9 5 4 2 2 8 17 24 25 20 37 54 51 45 40 47 42 39 32 21 19 23 28 31 23 20 16 19 17 5 7 15 24 22 19 19 18
46 44 43 40 34 30 27 23 19 19 18 15 10 7 5 10 13 12 12 8 11 21 28 33 40 36 27 20 12 7 8 12 10 3 10 18 24 24 20 17 15 15 17
59 60 60 56 53 50 47 45 42 42 41 40 40 44 43 42 36 39 39 40 42 42 37 34 31 18 15 12 12 9 7 5 7 13 20 23 21 17 13 11 13 15 19
60 59 59 52 48 43 41 39 36 36 40 40 42 41 41 42 44 37 33 28 22 16 19 20 12 11 12 11 11 12 13 12 13 14 15 15 13 12 11 10 13 17 22
55 56 52 48 45 44 44 43 40 41 40 34 33 30 27 22 17 14 15 18 23 20 16 19 20 17 16 16 15 14 12 11 9 9 10 8 5 4 8 13 17 22 25
57 52 51 44 41 39 35 30 31 31 29 29 27 26 28 29 27 27 25 24 24 24 21 18 16 16 14 14 12 10 9 8 7 6 3 2 1 7 11 17 22 27 31
56 55 52 48 46 42 40 37 38 36 36 35 34 31 30 36 31 29 25 22 21 21 20 19 17 16 14 12 12 10 8 8 6 4 3 6 7 11 15 20 25 30 32
56 55 49 43 43 42 40 37 35 31 31 30 29 28 27 31 28 24 21 20 18 16 15 15 14 11 10 9 9 6 5 4 4 6 9 12 15 19 22 25 27 33 40
54 51 46 41 41 40 38 37 35 32 32 29 26 27 27 25 23 20 18 16 13 13 12 10 9 8 6 5 6 6 7 9 11 13 16 19 22 24 26 28 31 33 36
48 45 42 41 40 40 36 34 32 29 27 24 23 22 19 18 15 13 11 9 9 8 7 7 5 5 6 8 11 14 15 18 20 22 23 25 25 26 26 28 32 36 39
38 37 37 36 34 33 31 28 26 24 22 20 19 16 15 13 11 10 10 9 10 10 10 10 10 11 14 17 19 21 22 26 28 28 28 29 29 30 33 34 35 38 42
29 29 28 28 27 26 24 23 21 19 18 17 15 13 13 13 13 12 12 13 14 15 16 18 20 21 22 24 27 30 31 32 32 33 33 33 36 37 36 40 42 45 46
22 21 19 17 16 15 15 15 15 15 15 15 13 12 12 14 15 14 14 14 15 16 19 22 26 28 30 31 31 32 34 34 33 34 36 38 39 40 43 45 49 50 55
21 19 19 19 18 17 15 14 12 12 13 15 16 17 18 17 18 18 21 21 21 21 21 26 32 31 29 29 28 29 31 32 33 35 38 39 40 43 47 48 50 54 56
26 25 22 20 19 19 18 19 20 19 19 18 19 20 20 20 21 26 27 29 26 28 30 34 34 34 35 35 33 33 33 35 37 39 40 43 46 47 50 48 48 48 51
29 29 29 28 27 25 24 23 22 21 22 23 24 25 26 28 25 28 28 28 28 29 30 30 34 40 45 45 40 40 41 40 42 44 47 47 47 48 50 48 47 47 46
36 33 30 27 26 26 27 26 25 24 23 25 25 27 30 27 29 32 30 31 31 28 30 33 39 43 46 47 46 46 45 45 44 44 44 44 44 44 44 43 41 42 43
36 33 28 25 23 21 21 21 21 20 19 19 20 25 25 24 29 36 31 31 30 32 35 40 44 43 42 42 42 42 41 41 40 40 39 38 37 39 38 39 40 39 41
32 28 25 23 20 19 18 18 17 17 16 18 22 27 27 27 26 28 30 29 28 29 29 33 35 37 39 40 40 39 38 36 35 35 34 34 33 34 35 36 36 39 39
23 22 19 18 17 17 17 18 18 19 20 21 22 26 28 26 24 24 25 25 26 28 29 30 31 32 33 34 34 35 34 33 32 31 30 30 30 31 31 31 32 33 36
20 17 15 14 14 14 13 12 12 12 12 14 15 17 20 21 21 21 23 24 25 26 26 26 26 26 26 27 27 28 28 28 27 27 27 27 27 27 27 27 28 29 30
18 15 14 14 14 14 14 14 14 15 15 16 17 18 18 18 18 18 19 19 20 21 22 22 22 23 25 26 27 29 29 28 27 27 26 27 27 29 30 29 29 29 31
14 12 12 12 12 12 13 14 14 15 15 16 17 18 18 19 19 20 20 21 21 23 25 27 28 30 30 30 30 30 29 26 24 25 28 29 31 32 32 33 34 33 34
12 12 11 10 10 10 12 14 16 18 19 19 20 20 21 22 22 23 24 25 27 28 29 31 32 33 32 32 32 31 29 26 25 30 32 34 37 39 41 39 36 35 36
7 7 9 12 14 16 16 17 17 18 18 19 20 21 21 22 23 23 25 26 27 28 30 31 32 32 34 34 34 35 33 28 23 37 39 41 45 46 40 36 38 40 41
Wind_Direction_850mb
164 172 173 187 194 211 225 238 244 252 255 254 250 251 245 238 231 237 231 233 233 244 238 245 248 250 252 256 241 240 228 219 213 182 190 195 207 221 221 269 265 257 260
135 140 137 139 139 144 150 159 107 75 335 277 243 236 236 244 244 233 240 233 228 217 231 244 226 195 186 144 127 116 102 87 93 106 104 110 232 258 262 256 251 253 267
119 116 111 107 107 103 99 96 102 100 97 98 94 107 123 166 158 159 162 170 180 162 139 130 116 115 111 101 89 61 32 16 355 277 203 231 245 247 238 234 244 265 281
107 107 103 99 95 92 89 88 85 87 88 92 92 91 92 96 88 90 94 108 107 105 107 109 114 99 80 65 57 63 89 140 213 216 218 216 209 210 218 240 265 286 294
99 97 93 92 92 90 88 86 83 84 84 86 89 91 91 94 89 88 88 87 85 85 100 100 96 97 105 109 119 144 160 161 157 165 170 168 175 197 227 261 284 299 303
88 87 90 93 92 90 89 90 90 89 88 85 84 84 85 83 92 105 118 124 127 120 128 135 132 132 133 124 117 114 118 123 137 148 155 164 186 251 285 297 304 309 320
90 90 91 90 91 91 90 93 97 97 97 97 101 106 107 102 99 96 90 94 99 106 111 108 111 113 114 116 113 114 118 118 115 113 104 135 291 305 308 312 318 321 324
83 82 82 84 87 88 89 85 84 85 86 87 86 86 93 93 88 85 86 91 96 101 105 106 106 104 99 92 90 87 87 83 68 52 19 332 323 313 312 316 320 324 325
77 79 79 79 82 84 86 87 83 85 87 88 87 85 81 83 79 77 72 73 79 85 87 86 86 82 76 72 65 53 46 35 32 349 335 327 321 316 315 315 321 326 328
68 68 71 73 78 78 78 79 78 77 77 79 81 79 78 79 77 74 73 70 64 68 70 74 75 71 59 34 18 4 348 345 342 331 325 322 318 317 318 321 322 324 325
64 64 63 60 59 61 61 62 64 66 68 72 75 78 80 78 80 74 69 63 57 44 36 30 22 358 330 323 324 324 326 328 323 319 316 316 313 313 313 313 315 319 320
64 64 65 64 62 61 58 59 59 59 59 59 60 61 60 60 54 42 29 17 14 2 356 347 338 326 317 315 313 311 311 311 311 309 308 308 308 310 308 305 310 314 314
50 49 50 50 50 50 49 49 49 47 42 37 34 25 24 20 17 7 357 350 346 342 336 331 325 321 315 310 306 303 302 301 301 302 303 301 304 307 306 307 312 313 308
38 37 37 36 33 30 27 22 17 15 12 11 5 357 357 359 351 346 344 341 336 329 322 320 318 312 305 299 293 295 298 300 303 303 300 303 306 306 306 305 307 308 305
10 0 354 351 351 353 351 349 347 341 331 326 323 320 317 316 320 319 307 300 304 305 308 318 316 307 304 301 299 299 298 298 299 299 300 301 302 303 304 307 312 313 311
8 359 345 325 314 310 309 309 311 311 309 307 301 296 295 298 306 307 313 307 307 304 305 320 323 325 326 319 311 307 304 303 303 305 304 304 305 305 306 309 310 308 308
346 342 338 332 328 316 304 300 299 299 299 296 296 295 296 296 297 302 307 310 314 306 306 312 313 309 311 309 305 306 308 307 305 306 305 306 307 308 308 309 309 311 312
330 327 322 320 321 322 321 314 305 299 297 297 297 295 295 296 293 293 298 304 302 296 292 293 297 300 302 301 303 303 303 303 303 302 303 305 308 307 308 310 313 315 314
320 315 312 311 309 310 314 316 315 312 307 304 301 294 300 299 295 300 307 304 299 297 295 294 296 300 301 301 302 303 304 305 307 308 309 310 310 310 310 311 314 316 316
326 318 314 313 315 317 318 319 319 319 321 316 315 317 323 321 313 311 312 310 307 306 308 309 308 306 307 308 309 310 311 311 310 309 308 308 308 309 311 313 314 314 316
334 331 328 327 326 326 331 332 331 332 330 334 334 328 331 331 330 330 329 328 326 322 319 317 315 314 313 313 313 315 317 317 317 317 317 318 320 320 321 322 322 323 323
350 352 348 345 347 350 349 349 348 342 338 336 334 332 337 338 338 336 334 332 330 329 328 328 328 328 327 327 328 329 331 332 333 336 338 339 339 340 340 337 336 337 339
347 352 354 356 357 0 1 2 3 2 360 357 354 352 351 351 352 353 353 352 349 347 345 344 343 341 338 336 335 335 335 336 337 339 340 342 344 345 344 340 336 334 333
359 2 4 6 9 14 15 16 15 14 12 10 10 11 14 15 13 8 5 1 356 350 344 340 335 332 328 325 323 322 325 329 332 333 330 334 335 335 336 336 334 331 331
4 11 19 25 31 32 34 34 34 33 30 26 23 18 13 8 2 356 351 345 340 335 332 331 331 330 329 327 326 322 317 313 313 319 319 315 321 324 324 322 319 318 318
23 32 38 41 40 41 38 36 33 27 21 15 10 4 359 354 350 345 340 336 333 331 330 329 328 329 327 325 322 320 318 314 309 312 310 311 317 322 322 318 318 318 319